TimeEDT,TemperatureF,Dew PointF,Humidity,Sea Level PressureIn,VisibilityMPH,Wind Direction,Wind SpeedMPH,Gust SpeedMPH,PrecipitationIn,Events,Conditions,WindDirDegrees,DateUTC
12:15 AM,65.3,63.7,94,30.12,5.0,SSE,5.8,-,N/A,,Overcast,160,2013-09-19 04:15:00
12:35 AM,65.3,63.9,95,30.12,5.0,SSE,3.5,-,N/A,,Overcast,150,2013-09-19 04:35:00
12:55 AM,65.3,64.0,96,30.12,4.0,SSE,3.5,-,N/A,,Overcast,150,2013-09-19 04:55:00
1:15 AM,65.3,63.9,95,30.11,5.0,SSE,3.5,-,N/A,,Overcast,150,2013-09-19 05:15:00
1:35 AM,64.8,63.7,96,30.11,5.0,SSE,3.5,-,N/A,,Overcast,150,2013-09-19 05:35:00
1:55 AM,64.8,63.7,96,30.11,5.0,SSE,4.6,-,N/A,,Overcast,150,2013-09-19 05:55:00
2:15 AM,64.8,63.7,96,30.11,4.0,SSE,3.5,-,N/A,,Overcast,160,2013-09-19 06:15:00
2:35 AM,64.8,63.7,96,30.11,4.0,SSE,3.5,-,N/A,,Overcast,150,2013-09-19 06:35:00
2:55 AM,64.8,63.9,97,30.11,4.0,SSE,5.8,-,N/A,,Overcast,160,2013-09-19 06:55:00
3:15 AM,64.8,63.9,97,30.10,4.0,SSE,5.8,-,N/A,,Overcast,160,2013-09-19 07:15:00
3:35 AM,64.9,64.0,97,30.10,4.0,SSE,4.6,-,N/A,,Overcast,160,2013-09-19 07:35:00
3:55 AM,64.9,64.0,97,30.10,4.0,South,4.6,-,N/A,,Overcast,170,2013-09-19 07:55:00
4:15 AM,64.9,64.0,97,30.10,4.0,SSE,4.6,-,N/A,,Overcast,160,2013-09-19 08:15:00
4:35 AM,64.9,64.2,98,30.10,4.0,South,4.6,-,N/A,,Overcast,170,2013-09-19 08:35:00
4:55 AM,64.9,64.4,98,30.10,3.0,South,4.6,-,N/A,,Overcast,170,2013-09-19 08:55:00
5:15 AM,64.9,64.4,98,30.10,3.0,South,5.8,-,N/A,,Overcast,180,2013-09-19 09:15:00
5:35 AM,64.8,64.6,99,30.11,2.5,South,3.5,-,N/A,,Overcast,170,2013-09-19 09:35:00
5:55 AM,64.8,64.8,100,30.10,2.0,SSE,4.6,-,N/A,,Overcast,160,2013-09-19 09:55:00
6:15 AM,64.8,64.8,100,30.10,2.0,SSE,5.8,-,N/A,,Overcast,160,2013-09-19 10:15:00
6:35 AM,64.8,64.8,100,30.10,2.0,South,4.6,-,N/A,,Overcast,170,2013-09-19 10:35:00
6:55 AM,64.8,64.8,100,30.10,2.0,SSE,4.6,-,N/A,,Overcast,160,2013-09-19 10:55:00
7:15 AM,64.6,64.6,100,30.11,1.5,South,4.6,-,N/A,,Overcast,170,2013-09-19 11:15:00
7:23 AM,64.4,64.4,100,30.11,1.2,SSE,4.6,-,N/A,,Overcast,160,2013-09-19 11:23:00
7:47 AM,64.4,64.4,100,30.11,1.2,SSE,4.6,-,N/A,,Overcast,160,2013-09-19 11:47:00
8:50 AM,64.4,64.4,100,30.11,2.0,SSE,3.5,-,N/A,,Overcast,150,2013-09-19 12:50:00
9:50 AM,66.2,64.4,94,30.11,2.5,South,5.8,-,N/A,,Overcast,170,2013-09-19 13:50:00
10:55 AM,66.2,66.2,100,30.10,2.0,SSE,5.8,-,N/A,Rain,Light Rain,150,2013-09-19 14:55:00
11:58 AM,66.2,66.2,100,30.10,3.0,South,5.8,-,N/A,,Overcast,170,2013-09-19 15:58:00
12:48 PM,66.2,66.2,100,30.10,3.0,South,5.8,-,N/A,,Overcast,180,2013-09-19 16:48:00
1:58 PM,71.6,66.2,83,30.07,10.0,South,5.8,-,N/A,,Overcast,180,2013-09-19 17:58:00
2:50 PM,71.6,66.2,83,30.06,7.0,SSE,4.6,-,N/A,Rain,Light Rain,160,2013-09-19 18:50:00
3:09 PM,69.8,66.2,88,30.06,2.0,South,4.6,-,N/A,Rain,Rain,170,2013-09-19 19:09:00
3:55 PM,69.8,69.8,100,30.06,2.0,ENE,4.6,-,N/A,Rain,Rain,60,2013-09-19 19:55:00
7:35 PM,69.1,68.4,98,30.03,3.0,SE,3.5,-,N/A,,Scattered Clouds,130,2013-09-19 23:35:00
7:55 PM,68.9,68.4,98,30.01,4.0,SE,6.9,-,N/A,,Clear,140,2013-09-19 23:55:00
8:15 PM,68.4,68.2,99,30.02,4.0,SE,4.6,-,N/A,,Clear,130,2013-09-20 00:15:00
8:35 PM,68.0,68.0,100,30.01,3.0,SE,5.8,-,N/A,,Scattered Clouds,140,2013-09-20 00:35:00
8:55 PM,68.0,68.0,100,30.01,2.5,SE,3.5,-,N/A,,Scattered Clouds,130,2013-09-20 00:55:00
9:15 PM,67.3,67.3,100,30.01,3.0,Calm,Calm,-,N/A,,Clear,0,2013-09-20 01:15:00
9:35 PM,66.7,66.7,100,30.02,3.0,Calm,Calm,-,N/A,,Clear,0,2013-09-20 01:35:00
9:55 PM,66.2,66.2,100,30.02,2.5,Calm,Calm,-,N/A,,Clear,0,2013-09-20 01:55:00
10:15 PM,65.7,65.7,100,30.03,2.0,Calm,Calm,-,N/A,,Clear,0,2013-09-20 02:15:00
10:35 PM,65.5,65.5,100,30.03,1.8,SSE,3.5,-,N/A,,Mostly Cloudy,150,2013-09-20 02:35:00
10:55 PM,65.8,65.8,100,30.04,2.5,Calm,Calm,-,N/A,,Mostly Cloudy,0,2013-09-20 02:55:00
11:15 PM,65.8,65.8,100,30.04,2.0,Calm,Calm,-,N/A,,Overcast,0,2013-09-20 03:15:00
11:35 PM,66.4,66.4,100,30.04,1.2,South,3.5,-,N/A,,Overcast,170,2013-09-20 03:35:00
11:55 PM,66.6,66.6,100,30.04,0.2,SSE,4.6,-,N/A,Fog,Fog,160,2013-09-20 03:55:00